Content
SEND FEEDBACK

Daily
Averages
Monthly
Summary
Canada

QUEBEC CITY, QUEBEC


Home > North America > Canada > Quebec
Elevation: 239 feet     Latitude: 46 48N     Longitude: 071 23W

WEATHER
 
SELECT A DAY
Number of Records: 191,965;   Date Range: 6/30/96 - 7/20/14
 
SHARE

PRINT THIS DATA

[ ← Previous Day ]
WEATHER ALMANAC - NOVEMBER 9, 2013
[ Next Day → ]
[ °C ]   °F
Weather ElementAverageHighLow
Temperature33.6 °F39.2 °F (1:00 pm)28.4 °F (11:00 pm)
Dewpoint19.3 °F24 °F (7:00 pm)15.8 °F (8:00 am)
Humidity53.4 %74 % (11:00 pm)29 % (1:00 pm)
Barometer30.05 in30.10 in (9:00 am)29.95 in (1:00 am)
Wind Speed9.4 mph18.4 mph (1:00 am)
Wind Gust23 mph (5:00 am)
Weather ElementAverage
Visibility21.5 mi
Wind DirectionWSW (235.2 °)

Weather ElementTotal
Precipitation---
Heating Degree Days31.2 (Base 65)
Averaged from 31 records on November 9, 2013
WEATHER CONDITIONS BREAKOUT
WIND DIRECTION BREAKOUT
WEATHER BY HOUR - NOVEMBER 9, 2013
[ °C ]   °F
Local TimeTemperatureDewpointHumidityBarometerVisibilityWind DirectionWind SpeedGust SpeedPrecipitationEventsConditions
1:00 AM35.0 °F23.0 °F48 %29.95 inWest (270°)15.0 mph
1:00 AM33.8 °F21.2 °F60 %29.95 in15.0 miWest (260°)18.4 mphMostly Cloudy
2:00 AM33.8 °F21.2 °F60 %29.97 in15.0 miWest (260°)16.1 mphMostly Cloudy
3:00 AM33.8 °F19.4 °F56 %30.00 in15.0 miWSW (250°)13.8 mph20.7 mphOvercast
4:00 AM34.0 °F20.0 °F44 %30.01 inWest (270°)12.7 mph
4:00 AM33.8 °F19.4 °F56 %30.01 in15.0 miWest (280°)13.8 mph20.7 mphOvercast
5:00 AM32.0 °F17.6 °F55 %30.04 in15.0 miWest (280°)11.5 mph23.0 mphMostly Cloudy
6:00 AM33.8 °F17.6 °F52 %30.06 in15.0 miWNW (290°)10.4 mphMostly Cloudy
7:00 AM33.0 °F18.0 °F41 %30.07 inWNW (300°)10.4 mph
7:00 AM33.8 °F17.6 °F52 %30.08 in30.0 miNW (310°)15.0 mphMostly Cloudy
8:00 AM32.0 °F15.8 °F51 %30.09 in30.0 miWNW (290°)10.4 mphMostly Cloudy
9:00 AM33.8 °F17.6 °F52 %30.10 in30.0 miWest (260°)10.4 mph18.4 mphMostly Cloudy
10:00 AM35.0 °F18.0 °F36 %30.09 inWest (280°)12.7 mph
10:00 AM35.6 °F17.6 °F48 %30.10 in30.0 miWest (260°)10.4 mph19.6 mphMostly Cloudy
11:00 AM35.6 °F17.6 °F48 %30.08 in30.0 miWNW (290°)13.8 mph20.7 mphMostly Cloudy
12:00 PM37.4 °F17.6 °F45 %30.07 in30.0 miWSW (250°)10.4 mphMostly Cloudy
1:00 PM39.0 °F18.0 °F29 %30.05 inWest (270°)6.9 mph
1:00 PM39.2 °F19.4 °F45 %30.06 in30.0 miWSW (240°)15.0 mphMostly Cloudy
2:00 PM37.4 °F17.6 °F45 %30.06 in30.0 miWSW (250°)13.8 mphMostly Cloudy
3:00 PM35.6 °F17.6 °F48 %30.05 in30.0 miWest (260°)6.9 mphMostly Cloudy
4:00 PM35.0 °F17.0 °F34 %30.05 inSW (230°)3.5 mph
4:00 PM32.0 °F17.6 °F55 %30.06 in30.0 miSW (230°)5.8 mphMostly Cloudy
5:00 PM32.0 °F19.4 °F60 %30.06 in15.0 miSW (220°)6.9 mphMostly Cloudy
6:00 PM32.0 °F19.4 °F60 %30.06 in15.0 miSW (230°)4.6 mphOvercast
7:00 PM31.0 °F24.0 °F66 %30.06 inWest (260°)2.3 mph
7:00 PM32.0 °F21.2 °F64 %30.06 in15.0 miWSW (250°)2.3 mphOvercast
8:00 PM32.0 °F21.2 °F64 %30.06 in15.0 miWest (260°)2.3 mphOvercast
9:00 PM30.2 °F21.2 °F69 %30.05 in15.0 miVariable2.3 mphOvercast
10:00 PM29.0 °F23.0 °F69 %30.03 inENE (70°)2.3 mph
10:00 PM30.2 °F21.2 °F69 %30.04 in15.0 miENE (70°)5.8 mphOvercast
11:00 PM28.4 °F21.2 °F74 %30.03 in15.0 miNE (50°)4.6 mphMostly Cloudy
Hourly data recorded from CYQB, located miles away from Quebec City, Quebec







STORIES FROM OUR PARTNERS